Torna al catalogo

APRIZESAT 2

AttivoComunicazioniSSO
NORAD 28366·PAYLOAD·🇺🇸 United States

Lanciato Jun 29, 2004 da Baikonur Cosmodrome

Loading…

Prossimi Passaggi (prossime 24 ore)

TLE

AggiornatoSource: Space-Track

Epoca: Sep 14, 2026, 09:58 UTC

1 28366U 04025A   26257.41557155  .00000074  00000-0  36205-4 0  9992
2 28366  98.1125  58.3968 0105076 341.4380  18.2987 14.38067112164463

Traccia APRIZESAT 2 in tempo reale con AllMySat

Download on the App Store